Regional Weather Roundup
Issued by NWS

Home | Current Version | Previous Version | Text Only | Print | Product List | Glossary Off
Versions: 1 2 3 4 5 6 7 8 9 10 11 12 13 14 15 16 17 18 19 20 21 22 23 24 25 26 27

000
ASUS45 KBOU 162207
RWRCO

WEATHER ROUNDUP FOR COLORADO
NATIONAL WEATHER SERVICE DENVER/BOULDER CO
400 PM MDT MON OCT 16 2017

NOTE: "FAIR" INDICATES FEW OR NO CLOUDS BELOW 12000 FEET WITH NO
SIGNIFICANT WEATHER AND/OR OBSTRUCTIONS TO VISIBILITY.

COZ001>005-013-030-031-162300-
...NORTHWEST COLORADO...

CITY           SKY/WX    TMP DP  RH WIND       PRES   REMARKS
CRAIG          FAIR      68  -6   5 W16       30.35F
HAYDEN         FAIR      65   3   8 NW14G20   30.38S
MEEKER         FAIR      69   2   7 NW8       30.36S
RABBIT EARS PA FAIR      46   9  21 W12G21    30.55S
STEAMBOAT SPGS FAIR      64   1   8 SW14      30.37F
WALDEN         FAIR      61  -4   7 W15G21    30.42R
$$

COZ006>008-011-162300-
...WEST CENTRAL VALLEYS...

CITY           SKY/WX    TMP DP  RH WIND       PRES   REMARKS
GRAND JUNCTION FAIR      66  10  11 W14       30.34F
MONTROSE       FAIR      67  11  11 NW12      30.36F
EAGLE          FAIR      68  -2   6 W21G29    30.37R
RIFLE          FAIR      70   3   7 W18       30.33F
DELTA          FAIR      73  10   8 SW13      30.33F
NUCLA          FAIR      72   5   7 NW8       30.40F
$$

COZ017>023-064>068-162300-
...SOUTHWEST COLORADO...

CITY           SKY/WX    TMP DP  RH WIND       PRES   REMARKS
DURANGO        FAIR      71  11  10 SW12G18   30.39F
CORTEZ         FAIR      71   8   8 SW7       30.38F
PAGOSA SPRINGS FAIR      68  -2   6 SW9       30.45S
TELLURIDE      FAIR      63   6  10 NW6       30.53R
WOLF CREEK PAS FAIR      46  10  23 SW16G24   30.71S
$$

COZ009-010-012-014-032>034-037-058>063-162300-
...CENTRAL COLORADO...

CITY           SKY/WX    TMP DP  RH WIND       PRES   REMARKS
ASPEN          FAIR      65   4   9 NW13      30.41S
BUENA VISTA    FAIR      70 -15   3 W12G26    30.38R
COPPER MTN     FAIR      50 -31   3 W16G30    30.63R
BERTHOUD PASS  FAIR      37  30  75 NW44G49   30.57F
COTTONWOOD PAS   N/A     66 N/A N/A W8G23     30.50R
GUNNISON       FAIR      67  -7   5 W13G22    30.40F
KREMMLING      FAIR      73  -8   4 CALM      30.38S
LEADVILLE      FAIR      57 -12   5 NW15G21   30.50R
MONARCH PASS   FAIR      46  -6  11 W31G38    30.74S
SALIDA         NOT AVBL
SUNLIGHT       FAIR      52   5  15 SW12G21   30.61S
WILKERSON PASS FAIR      54 -18   5 W5        30.60R
$$

COZ069>075-162300-
...SAN LUIS VALLEY/SANGRE DE CRISTO MOUNTAINS...

CITY           SKY/WX    TMP DP  RH WIND       PRES   REMARKS
ALAMOSA        FAIR      67  12  12 SE8       30.40F
DEL NORTE      FAIR      62  12  14 E5        30.43F
LA VETA PASS   FAIR      59   5  11 MISG      30.65S
SAGUACHE       FAIR      64  10  12 S9        30.43S
$$

COZ035-036-038>040-162300-
...NORTHERN COLORADO FRONT RANGE...

CITY           SKY/WX    TMP DP  RH WIND       PRES   REMARKS
DENVER INTL AP FAIR      77   3   5 W15       30.21S
DMNS CITY PARK   N/A     70  16  12 SW6       30.21S
AURORA         MOSUNNY   74   3   6 SE3       30.24S
FRONT RANGE AP MOSUNNY   79   5   6 NW12      30.23R
ERIE MUNI ARPT FAIR      75  11   8 SW8       30.24S
BOULDER MUN AP FAIR      70  21  16 S9        30.19F
CENTENNIAL     PTSUNNY   72  14  11 CALM      30.24S
BROOMFIELD     PTSUNNY   70  18  13 SW8       30.24S
FORT COLLINS   FAIR      75  20  12 S8        30.19S
LONGMONT       FAIR      77  18  11 S8        30.20R
$$

COZ041-046-047-076>085-087-088-162300-
...PIKES PEAK/PALMER DIVIDE AND SOUTHERN FOOTHILLS...

CITY           SKY/WX    TMP DP  RH WIND       PRES   REMARKS
COLO. SPRINGS  PTSUNNY   76   3   6 SE12      30.27S
A. F. ACADEMY  FAIR      73  -2   5 S10       30.27S
SCHRIEVER AFB  FAIR      74   8   8 S10       30.27S
CHEYENNE MTN   FAIR      66  14  13 SW7       30.26S
ELLICOTT       FAIR     N/A N/A N/A SW10      30.25F
FALCON         FAIR      71   1   6 CALM      30.31S
FORT CARSON    NOT AVBL
LIMON          FAIR      77   3   5 NW13G20   30.22R
MONUMENT HILL  FAIR      68   3   8 CALM      30.33S
CANON CITY     SUNNY     84   0   4 SW14      30.19F
WALSENBURG     FAIR      81  10   7 SW10      30.26S
TRINIDAD       FAIR      79  12   8 S8        30.25F
$$

COZ042>045-048>051-090-091-162300-
...NORTHEAST COLORADO...

CITY           SKY/WX    TMP DP  RH WIND       PRES   REMARKS
GREELEY ARPT   FAIR      79  24  13 CALM      30.18S
AKRON          NOT AVBL
BURLINGTON     FAIR      80  21  11 SW6       30.15F
WRAY           FAIR      82  19   9 NW8       30.12S
YUMA           NOT AVBL
STERLING       FAIR      77  21  12 W9        30.12S
HOLYOKE        FAIR      81  19  10 W9        30.11F
FORT MORGAN    FAIR      80  10   7 W10       30.17S
$$

COZ086-089-092>099-162300-
...SOUTHEAST COLORADO...

CITY           SKY/WX    TMP DP  RH WIND       PRES   REMARKS
PUEBLO         FAIR      81   6   5 SW7       30.17S
LA JUNTA       FAIR      80  17   9 CALM      30.17F
LAMAR          FAIR      80  27  14 CALM      30.14F
SPRINGFIELD      N/A     75  33  21 S9        30.20S
$$




USA.gov is the U.S. government's official web portal to all federal, state and local government web resources and services.